{"data":{"norad_id":68873,"epoch":"2026-09-19T05:19:13.252224Z","epoch_age_seconds":125842,"freshness":"FRESH","line1":"1 68873U 26095K   26262.22168116  .00001390  00000+0  22759-3 0  9999","line2":"2 68873  51.8986 172.4191 0000850 167.6942 192.4040 14.76625847 21850","mean_motion":14.76625847,"eccentricity":8.5e-5,"inclination_deg":51.8986,"raan_deg":172.4191,"arg_perigee_deg":167.6942,"mean_anomaly_deg":192.404,"bstar":0.00022759,"rev_number":2185,"period_min":97.519625768815,"perigee_km":639.39843048171,"apogee_km":640.5915129169,"semimajor_km":7018.1319716993,"source":"CELESTRAK","updated_at":"2026-09-20T09:00:24.534172Z"}}